Location: ?????oe
(44.4874°N, 135.7046°E)
Time: 00:41:48
(UTC+00:00)

Cosmos 1743 - Pass Details

Date: 13 December 2025
Orbit: 399 x 407 km, 82.5° (Epoch: 19 January)

Event Time Altitude Azimuth Distance (km) Brightness Sun altitude
Rises 21:09:48 0° 204° (SSW) 2,358 6.0 -13.0°
Reaches altitude 10° 21:11:55 10° 213° (SSW) 1,502 4.9 -12.6°
Maximum altitude 21:14:58 37° 282° (WNW) 675 2.8 -12.1°
Drops below altitude 10° 21:18:07 10° 353° (N) 1,534 4.8 -11.6°
Sets 21:20:14 0° 1° (N) 2,391 5.9 -11.2°
